, FL

(GMT )
PANAMA CITY

Weather History for KPFN - November, 2006

Change the Weather History Date:

Saturday, November 4, 2006

  Actual Average Record
Temperature  
Mean Temperature 58 °F -  
Max Temperature 71 °F 74 °F 91 °F (1972)
Min Temperature 44 °F 54 °F 34 °F (1991)
Degree Days  
Heating Degree Days 8    
Growing Degree Days 8 (Base 50)    
Moisture  
Dew Point 38 °F    
Average Humidity 53    
Maximum Humidity 75    
Minimum Humidity 41    
Precipitation  
Precipitation 0.00 in - - ()
Sea Level Pressure  
Sea Level Pressure 30.33 in    
Wind  
Wind Speed 12 mph (ENE)    
Max Wind Speed 16 mph    
Max Gust Speed -    
Visibility 10 miles    
Events      
Averages and records for this station are not official NWS values.
T = Trace of Precipitation, MM = Missing Value Source: NWS Daily Summary

Daily Weather History Graph

Daily Weather History Graph

Search for Another Location

Airport or City:

Astronomy

Nov. 04, 2006 Rise Set
Actual Time 5:59 AM CST 4:53 PM CST
Civil Twilight 5:34 AM CST 5:17 PM CST
Nautical Twilight 5:05 AM CST 5:46 PM CST
Astronomical Twilight 4:37 AM CST 6:14 PM CST
Moon 4:10 PM CST (11/4) 4:52 AM CST (11/4)
Length of Visible Light 11h 43m
Length of Day
10h 53m
Waxing Gibbous, 99% of the Moon is Illuminated
Nov 4
Waxing Gibbous
Nov 5
Full
Nov 12
Last Quarter
Nov 20
New
Nov 28
First Quarter

Hourly Weather History & Observations

Time (CST) Temp. Windchill Dew Point Humidity Pressure Visibility Wind Dir Wind Speed Gust Speed Precip Events Conditions
12:53 AM 50.0 °F - 27.0 °F 41% 30.30 in 10.0 mi East 11.5 mph - N/A   Clear
1:53 AM 48.9 °F - 26.1 °F 41% 30.31 in 10.0 mi East 11.5 mph - N/A   Clear
2:53 AM 46.0 °F 41.0 °F 28.0 °F 50% 30.31 in 10.0 mi ENE 10.4 mph - N/A   Clear
3:53 AM 45.0 °F 40.1 °F 28.0 °F 52% 30.32 in 10.0 mi East 9.2 mph - N/A   Clear
4:53 AM 44.1 °F 38.6 °F 27.0 °F 51% 30.32 in 10.0 mi East 10.4 mph - N/A   Clear
5:53 AM 46.0 °F 41.0 °F 25.0 °F 44% 30.33 in 10.0 mi East 10.4 mph - N/A   Clear
6:53 AM 46.9 °F - 26.1 °F 44% 30.35 in 10.0 mi East 12.7 mph - N/A   Clear
7:53 AM 52.0 °F - 30.0 °F 43% 30.37 in 10.0 mi East 16.1 mph - N/A   Clear
8:53 AM 55.9 °F - 34.0 °F 44% 30.38 in 10.0 mi East 13.8 mph - N/A   Clear
9:53 AM 61.0 °F - 39.0 °F 44% 30.36 in 10.0 mi East 16.1 mph - N/A   Clear
10:53 AM 64.9 °F - 42.1 °F 43% 30.34 in 10.0 mi East 12.7 mph - N/A   Clear
11:53 AM 68.0 °F - 44.1 °F 42% 30.31 in 10.0 mi East 10.4 mph - N/A   Clear
12:53 PM 70.0 °F - 46.0 °F 42% 30.29 in 10.0 mi East 8.1 mph - N/A   Clear
1:53 PM 71.1 °F - 46.9 °F 42% 30.27 in 10.0 mi NE 8.1 mph - N/A   Clear
2:53 PM 71.1 °F - 46.0 °F 41% 30.27 in 10.0 mi NE 11.5 mph - N/A   Clear
3:53 PM 70.0 °F - 46.0 °F 42% 30.28 in 10.0 mi NE 11.5 mph - N/A   Clear
4:53 PM 64.9 °F - 46.9 °F 52% 30.28 in 10.0 mi ENE 9.2 mph - N/A   Clear
5:53 PM 62.1 °F - 46.9 °F 58% 30.30 in 10.0 mi ENE 8.1 mph - N/A   Clear
6:53 PM 61.0 °F - 48.0 °F 62% 30.31 in 10.0 mi ENE 6.9 mph - N/A   Clear
7:53 PM 59.0 °F - 46.9 °F 64% 30.31 in 10.0 mi East 6.9 mph - N/A   Clear
8:53 PM 57.9 °F - 46.0 °F 65% 30.33 in 10.0 mi East 10.4 mph - N/A   Clear
9:53 PM 57.9 °F - 46.0 °F 65% 30.33 in 10.0 mi East 10.4 mph - N/A   Clear
10:53 PM 57.9 °F - 48.0 °F 70% 30.32 in 10.0 mi East 9.2 mph - N/A   Clear
11:53 PM 55.9 °F - 48.0 °F 75% 30.31 in 10.0 mi East 11.5 mph - N/A   Clear